IRIDIUM 146

Last updated on Sun Jun 21 2026 00:03:14 GMT+0000 (Coordinated Universal Time)

1 43254U 18030F 26171.38286245 .00000177 00000+0 56275-4 0 9998 2 43254 86.3961 289.0808 0002133 97.8312 262.3126 14.34217191430593
UTC large
Height (km)
Speed (km/s)
/
Latitude / Longitude
Inclination (degrees)
Orbital Period (minutes)
Azimuth
Elevation
Range (km)
Doppler Factor

Next 0 passes for location: London (51.5072 / 0.1276)

No passes found over London.
IRIDIUM 146